This is the latest recevied weather packets stored in our database for station/object K2CAT. If no packets are shown the sender has not sent any weather packets the latest 1 day(s).
| Time | Temp. | Humidity | Pressure | Rain* | Wind** | Luminosity | Snow |
|---|---|---|---|---|---|---|---|
| 1778046102 | 17.78° C | 73% | 1008 hPa | 0 mm | - | 0 W/m² | - |
| 1778045800 | 17.78° C | 72% | 1008.1 hPa | 0 mm | - | 0 W/m² | - |
| 1778044894 | 17.22° C | 73% | 1008.1 hPa | 0 mm | - | 0 W/m² | - |
| 1778044591 | 17.22° C | 73% | 1008.3 hPa | 0 mm | - | 0 W/m² | - |
| 1778044287 | 17.22° C | 73% | 1008 hPa | 0 mm | - | 0 W/m² | - |
| 1778043682 | 17.22° C | 72% | 1008.2 hPa | 0 mm | - | 0 W/m² | - |
| 1778043379 | 17.22° C | 74% | 1008.2 hPa | 0 mm | - | 0 W/m² | - |
| 1778043075 | 17.22° C | 73% | 1008.3 hPa | 0 mm | - | 0 W/m² | - |
| 1778042470 | 17.78° C | 72% | 1008.2 hPa | 0 mm | - | 0 W/m² | - |
| 1778042167 | 17.78° C | 71% | 1008.1 hPa | 0 mm | - | 0 W/m² | - |
| 1778041564 | 18.33° C | 69% | 1008.1 hPa | 0 mm | - | 0 W/m² | - |
| 1778041262 | 18.33° C | 69% | 1008 hPa | 0 mm | - | 0 W/m² | - |
| 1778040656 | 18.33° C | 69% | 1008.1 hPa | 0 mm | - | 0 W/m² | - |
| 1778040354 | 18.33° C | 69% | 1008.1 hPa | 0 mm | - | 0 W/m² | - |
| 1778039444 | 18.33° C | 71% | 1007.7 hPa | 0 mm | - | 0 W/m² | - |
| 1778038838 | 18.89° C | 68% | 1007.8 hPa | 0 mm | - | 0 W/m² | - |
| 1778038536 | 18.89° C | 68% | 1007.9 hPa | 0 mm | - | 0 W/m² | - |
| 1778037930 | 18.89° C | 66% | 1007.6 hPa | 0 mm | - | 0 W/m² | - |
| 1778037627 | 19.44° C | 67% | 1007.9 hPa | 0 mm | - | 0 W/m² | - |
| 1778037021 | 19.44° C | 65% | 1007.7 hPa | 0 mm | - | 0 W/m² | - |
| 1778036719 | 20° C | 65% | 1007.7 hPa | 0 mm | - | 0 W/m² | - |
| 1778036416 | 20° C | 64% | 1007.7 hPa | 0 mm | - | 0 W/m² | - |
| 1778036113 | 20° C | 64% | 1007.9 hPa | 0 mm | - | 0 W/m² | - |
| 1778035202 | 20.56° C | 60% | 1007.8 hPa | 0 mm | - | 0 W/m² | - |
| 1778034899 | 20.56° C | 59% | 1007.8 hPa | 0 mm | - | 0 W/m² | - |
* Rain latest hour (hover to see other rain measurements)
** Current wind speed in m/s (hover to see current wind gust speed)